Time,TemperatureF,DewpointF,PressureIn,WindDirection,WindDirectionDegrees,WindSpeedMPH,WindSpeedGustMPH,Humidity,HourlyPrecipIn,Conditions,Clouds,dailyrainin,SoftwareType,DateUTC
2013-04-01 00:03:00,34.7,24.5,30.10,SSE,162,0.0,0.0,66,0.00,,SKC,0.00,VWS V14.01,2013-04-01 06:03:00,
2013-04-01 00:08:00,34.6,25.1,30.10,SSE,162,0.0,0.0,68,0.00,,SKC,0.00,VWS V14.01,2013-04-01 06:08:00,
2013-04-01 00:13:00,34.4,25.0,30.10,SSE,162,0.0,0.0,68,0.00,,SKC,0.00,VWS V14.01,2013-04-01 06:13:00,
2013-04-01 00:18:00,34.3,24.5,30.09,SSE,162,0.0,0.0,67,0.00,,SKC,0.00,VWS V14.01,2013-04-01 06:18:00,
2013-04-01 00:23:00,34.1,24.3,30.09,SSE,162,0.0,0.0,67,0.00,,SKC,0.00,VWS V14.01,2013-04-01 06:23:00,
2013-04-01 00:28:00,33.8,24.4,30.09,SSE,162,0.0,0.0,68,0.00,,SKC,0.00,VWS V14.01,2013-04-01 06:28:00,
2013-04-01 00:33:00,33.7,24.6,30.09,SE,125,0.0,0.0,69,0.00,,SKC,0.00,VWS V14.01,2013-04-01 06:33:00,
2013-04-01 00:38:00,33.7,24.6,30.09,SE,125,0.0,0.0,69,0.00,,SKC,0.00,VWS V14.01,2013-04-01 06:38:00,
2013-04-01 00:43:00,33.7,24.6,30.09,SE,125,0.0,0.0,69,0.00,,SKC,0.00,VWS V14.01,2013-04-01 06:43:00,
2013-04-01 00:48:00,33.5,24.4,30.09,SE,125,0.0,0.0,69,0.00,,SKC,0.00,VWS V14.01,2013-04-01 06:48:00,
2013-04-01 00:53:00,33.4,24.3,30.09,SE,125,0.0,0.0,69,0.00,,SKC,0.00,VWS V14.01,2013-04-01 06:53:00,
2013-04-01 00:58:00,33.4,24.3,30.09,SE,125,0.0,0.0,69,0.00,,SKC,0.00,VWS V14.01,2013-04-01 06:58:00,
2013-04-01 01:03:00,33.4,24.3,30.10,SE,127,0.0,0.0,69,0.00,,SKC,0.00,VWS V14.01,2013-04-01 07:03:00,
2013-04-01 01:08:00,33.5,24.4,30.10,SE,127,0.0,0.0,69,0.00,,SKC,0.00,VWS V14.01,2013-04-01 07:08:00,
2013-04-01 01:13:00,33.4,24.3,30.10,SE,127,0.0,0.0,69,0.00,,SKC,0.00,VWS V14.01,2013-04-01 07:13:00,
2013-04-01 01:18:00,33.2,24.5,30.09,SE,127,0.0,0.0,70,0.00,,SKC,0.00,VWS V14.01,2013-04-01 07:18:00,
2013-04-01 01:23:00,33.2,24.5,30.09,SE,127,0.0,0.0,70,0.00,,SKC,0.00,VWS V14.01,2013-04-01 07:23:00,
2013-04-01 01:28:00,33.1,24.4,30.09,SE,127,0.0,0.0,70,0.00,,SKC,0.00,VWS V14.01,2013-04-01 07:28:00,
2013-04-01 01:33:00,32.9,24.2,30.09,SE,127,0.0,0.0,70,0.00,,SKC,0.00,VWS V14.01,2013-04-01 07:33:00,
2013-04-01 01:38:00,32.8,24.1,30.09,SE,127,0.0,0.0,70,0.00,,SKC,0.00,VWS V14.01,2013-04-01 07:38:00,
2013-04-01 01:43:00,32.7,24.0,30.09,SE,127,0.0,0.0,70,0.00,,SKC,0.00,VWS V14.01,2013-04-01 07:43:00,
2013-04-01 01:48:00,32.4,24.1,30.09,SE,127,0.0,0.0,71,0.00,,SKC,0.00,VWS V14.01,2013-04-01 07:48:00,
2013-04-01 01:53:00,31.9,23.6,30.09,SE,127,0.0,0.0,71,0.00,,SKC,0.00,VWS V14.01,2013-04-01 07:53:00,
2013-04-01 01:58:00,31.6,23.6,30.09,SE,127,0.0,0.0,72,0.00,,SKC,0.00,VWS V14.01,2013-04-01 07:58:00,
2013-04-01 02:03:00,31.3,23.3,30.10,SE,127,0.0,0.0,72,0.00,,SKC,0.00,VWS V14.01,2013-04-01 08:03:00,
2013-04-01 02:08:00,31.2,23.6,30.10,SE,127,0.0,0.0,73,0.00,,SKC,0.00,VWS V14.01,2013-04-01 08:08:00,
2013-04-01 02:13:00,30.9,23.3,30.10,SE,127,0.0,0.0,73,0.00,,SKC,0.00,VWS V14.01,2013-04-01 08:13:00,
2013-04-01 02:18:00,30.7,23.4,30.09,SE,127,0.0,0.0,74,0.00,,SKC,0.00,VWS V14.01,2013-04-01 08:18:00,
2013-04-01 02:23:00,30.6,23.3,30.09,SE,127,0.0,0.0,74,0.00,,SKC,0.00,VWS V14.01,2013-04-01 08:23:00,
2013-04-01 02:28:00,30.4,23.1,30.09,SE,127,0.0,0.0,74,0.00,,SKC,0.00,VWS V14.01,2013-04-01 08:28:00,
2013-04-01 02:33:00,30.3,23.3,30.10,SE,127,0.0,0.0,75,0.00,,SKC,0.00,VWS V14.01,2013-04-01 08:33:00,
2013-04-01 02:38:00,30.3,23.3,30.10,SE,127,0.0,0.0,75,0.00,,SKC,0.00,VWS V14.01,2013-04-01 08:38:00,
2013-04-01 02:43:00,30.4,23.4,30.10,SE,127,0.0,0.0,75,0.00,,SKC,0.00,VWS V14.01,2013-04-01 08:43:00,
2013-04-01 02:48:00,30.4,23.4,30.10,SE,127,0.0,0.0,75,0.00,,SKC,0.00,VWS V14.01,2013-04-01 08:48:00,
2013-04-01 02:53:00,30.6,23.6,30.10,SE,127,0.0,0.0,75,0.00,,SKC,0.00,VWS V14.01,2013-04-01 08:53:00,
2013-04-01 02:58:00,30.6,23.6,30.10,SE,127,0.0,0.0,75,0.00,,SKC,0.00,VWS V14.01,2013-04-01 08:58:00,
2013-04-01 03:03:00,30.6,24.0,30.09,SE,127,0.0,0.0,76,0.00,,SKC,0.00,VWS V14.01,2013-04-01 09:03:00,
2013-04-01 03:08:00,30.4,23.4,30.09,SE,127,0.0,0.0,75,0.00,,SKC,0.00,VWS V14.01,2013-04-01 09:08:00,
2013-04-01 03:13:00,30.3,23.3,30.09,SE,127,0.0,0.0,75,0.00,,SKC,0.00,VWS V14.01,2013-04-01 09:13:00,
2013-04-01 03:18:00,30.1,23.5,30.11,SE,127,0.0,0.0,76,0.00,,SKC,0.00,VWS V14.01,2013-04-01 09:18:00,
2013-04-01 03:23:00,30.0,23.4,30.11,SE,127,0.0,0.0,76,0.00,,SKC,0.00,VWS V14.01,2013-04-01 09:23:00,
2013-04-01 03:28:00,30.0,23.4,30.11,SE,127,0.0,0.0,76,0.00,,SKC,0.00,VWS V14.01,2013-04-01 09:28:00,
2013-04-01 03:33:00,29.8,23.5,30.12,SE,127,0.0,0.0,77,0.00,,SKC,0.00,VWS V14.01,2013-04-01 09:33:00,
2013-04-01 03:38:00,29.5,23.2,30.12,SE,127,0.0,0.0,77,0.00,,SKC,0.00,VWS V14.01,2013-04-01 09:38:00,
2013-04-01 03:43:00,29.4,23.1,30.12,SE,127,0.0,0.0,77,0.00,,SKC,0.00,VWS V14.01,2013-04-01 09:43:00,
2013-04-01 03:48:00,29.5,23.5,30.11,SE,127,0.0,0.0,78,0.00,,SKC,0.00,VWS V14.01,2013-04-01 09:48:00,
2013-04-01 03:53:00,29.7,23.7,30.11,SE,127,0.0,0.0,78,0.00,,SKC,0.00,VWS V14.01,2013-04-01 09:53:00,
2013-04-01 03:58:00,29.7,23.7,30.11,SE,127,0.0,0.0,78,0.00,,SKC,0.00,VWS V14.01,2013-04-01 09:58:00,
2013-04-01 04:03:00,29.7,23.7,30.11,SE,127,0.0,0.0,78,0.00,,SKC,0.00,VWS V14.01,2013-04-01 10:03:00,
2013-04-01 04:08:00,29.7,23.7,30.11,SE,127,0.0,0.0,78,0.00,,SKC,0.00,VWS V14.01,2013-04-01 10:08:00,
2013-04-01 04:13:00,29.5,23.2,30.11,SE,127,0.0,0.0,77,0.00,,SKC,0.00,VWS V14.01,2013-04-01 10:13:00,
2013-04-01 04:18:00,29.5,23.5,30.11,SE,127,0.0,0.0,78,0.00,,SKC,0.00,VWS V14.01,2013-04-01 10:18:00,
2013-04-01 04:23:00,29.4,23.1,30.11,SE,127,0.0,0.0,77,0.00,,SKC,0.00,VWS V14.01,2013-04-01 10:23:00,
2013-04-01 04:28:00,29.1,23.1,30.11,SE,127,0.0,0.0,78,0.00,,SKC,0.00,VWS V14.01,2013-04-01 10:28:00,
2013-04-01 04:33:00,29.0,23.0,30.11,SE,127,0.0,0.0,78,0.00,,SKC,0.00,VWS V14.01,2013-04-01 10:33:00,
2013-04-01 04:38:00,28.7,22.4,30.11,SE,127,0.0,0.0,77,0.00,,SKC,0.00,VWS V14.01,2013-04-01 10:38:00,
2013-04-01 04:43:00,28.4,22.4,30.11,SE,127,0.0,0.0,78,0.00,,SKC,0.00,VWS V14.01,2013-04-01 10:43:00,
2013-04-01 04:48:00,28.2,22.5,30.12,SE,127,0.0,0.0,79,0.00,,SKC,0.00,VWS V14.01,2013-04-01 10:48:00,
2013-04-01 04:53:00,28.2,22.5,30.12,SE,127,0.0,0.0,79,0.00,,SKC,0.00,VWS V14.01,2013-04-01 10:53:00,
2013-04-01 04:58:00,28.1,22.7,30.12,SE,127,0.0,0.0,80,0.00,,SKC,0.00,VWS V14.01,2013-04-01 10:58:00,
2013-04-01 05:03:00,27.9,22.2,30.12,SE,127,0.0,0.0,79,0.00,,SKC,0.00,VWS V14.01,2013-04-01 11:03:00,
2013-04-01 05:08:00,27.8,22.1,30.12,SE,127,0.0,0.0,79,0.00,,SKC,0.00,VWS V14.01,2013-04-01 11:08:00,
2013-04-01 05:13:00,27.6,22.0,30.12,SE,127,0.0,0.0,79,0.00,,SKC,0.00,VWS V14.01,2013-04-01 11:13:00,
2013-04-01 05:18:00,27.2,21.9,30.13,SE,127,0.0,0.0,80,0.00,,SKC,0.00,VWS V14.01,2013-04-01 11:18:00,
2013-04-01 05:23:00,27.0,22.0,30.13,SE,127,0.0,0.0,81,0.00,,SKC,0.00,VWS V14.01,2013-04-01 11:23:00,
2013-04-01 05:28:00,26.7,21.7,30.13,SE,127,0.0,0.0,81,0.00,,SKC,0.00,VWS V14.01,2013-04-01 11:28:00,
2013-04-01 05:33:00,26.6,21.6,30.13,SE,127,0.0,0.0,81,0.00,,SKC,0.00,VWS V14.01,2013-04-01 11:33:00,
2013-04-01 05:38:00,26.3,21.3,30.13,SE,127,0.0,0.0,81,0.00,,SKC,0.00,VWS V14.01,2013-04-01 11:38:00,
2013-04-01 05:43:00,26.1,21.1,30.13,SE,127,0.0,0.0,81,0.00,,SKC,0.00,VWS V14.01,2013-04-01 11:43:00,
2013-04-01 05:48:00,26.0,21.3,30.14,SE,127,0.0,0.0,82,0.00,,SKC,0.00,VWS V14.01,2013-04-01 11:48:00,
2013-04-01 05:53:00,25.8,21.1,30.14,SE,127,0.0,0.0,82,0.00,,SKC,0.00,VWS V14.01,2013-04-01 11:53:00,
2013-04-01 05:58:00,25.6,20.9,30.14,SE,127,0.0,0.0,82,0.00,,SKC,0.00,VWS V14.01,2013-04-01 11:58:00,
2013-04-01 06:03:00,25.6,21.2,30.14,SE,127,0.0,0.0,83,0.00,,SKC,0.00,VWS V14.01,2013-04-01 12:03:00,
2013-04-01 06:08:00,25.4,21.0,30.14,SE,127,0.0,0.0,83,0.00,,SKC,0.00,VWS V14.01,2013-04-01 12:08:00,
2013-04-01 06:13:00,25.4,21.2,30.14,SE,127,0.0,0.0,84,0.00,,SKC,0.00,VWS V14.01,2013-04-01 12:13:00,
2013-04-01 06:18:00,25.4,21.2,30.17,SE,127,0.0,0.0,84,0.00,,SKC,0.00,VWS V14.01,2013-04-01 12:18:00,
2013-04-01 06:23:00,25.4,21.2,30.17,SE,127,0.0,0.0,84,0.00,,SKC,0.00,VWS V14.01,2013-04-01 12:23:00,
2013-04-01 06:28:00,25.6,21.5,30.17,SE,127,0.0,0.0,84,0.00,,SKC,0.00,VWS V14.01,2013-04-01 12:28:00,
2013-04-01 06:33:00,25.4,21.2,30.16,SE,127,0.0,0.0,84,0.00,,SKC,0.00,VWS V14.01,2013-04-01 12:33:00,
2013-04-01 06:38:00,25.6,21.5,30.16,SE,127,0.0,0.0,84,0.00,,FEW180,0.00,VWS V14.01,2013-04-01 12:38:00,
2013-04-01 06:43:00,25.6,21.5,30.16,SE,127,0.0,0.0,84,0.00,,FEW180,0.00,VWS V14.01,2013-04-01 12:43:00,
2013-04-01 06:48:00,25.4,21.2,30.17,SE,127,0.0,0.0,84,0.00,,FEW180,0.00,VWS V14.01,2013-04-01 12:48:00,
2013-04-01 06:54:00,25.3,21.1,30.17,SE,127,0.0,0.0,84,0.00,,FEW180,0.00,VWS V14.01,2013-04-01 12:54:00,
2013-04-01 06:59:00,25.3,21.1,30.17,SE,127,0.0,0.0,84,0.00,,FEW180,0.00,VWS V14.01,2013-04-01 12:59:00,
2013-04-01 07:03:00,25.1,21.0,30.17,SE,127,0.0,0.0,84,0.00,,FEW180,0.00,VWS V14.01,2013-04-01 13:03:00,
2013-04-01 07:08:00,25.1,21.0,30.17,SE,127,0.0,0.0,84,0.00,,FEW180,0.00,VWS V14.01,2013-04-01 13:08:00,
2013-04-01 07:13:00,25.0,20.9,30.17,SE,127,0.0,0.0,84,0.00,,FEW180,0.00,VWS V14.01,2013-04-01 13:13:00,
2013-04-01 07:18:00,24.8,20.7,30.18,SE,127,0.0,0.0,84,0.00,,FEW180,0.00,VWS V14.01,2013-04-01 13:18:00,
2013-04-01 07:23:00,25.0,21.1,30.18,SE,127,0.0,0.0,85,0.00,,FEW180,0.00,VWS V14.01,2013-04-01 13:23:00,
2013-04-01 07:29:00,25.0,21.1,30.18,SE,127,0.0,0.0,85,0.00,,FEW180,0.00,VWS V14.01,2013-04-01 13:29:00,
2013-04-01 07:34:00,25.0,21.1,30.18,SE,127,0.0,0.0,85,0.00,,FEW180,0.00,VWS V14.01,2013-04-01 13:34:00,
2013-04-01 07:39:00,25.0,21.1,30.18,SE,127,0.0,0.0,85,0.00,,FEW180,0.00,VWS V14.01,2013-04-01 13:39:00,
2013-04-01 07:44:00,25.0,21.1,30.18,SE,127,0.0,0.0,85,0.00,,FEW180,0.00,VWS V14.01,2013-04-01 13:44:00,
2013-04-01 07:49:00,25.0,21.1,30.18,SE,127,0.0,0.0,85,0.00,,FEW180,0.00,VWS V14.01,2013-04-01 13:49:00,
2013-04-01 07:54:00,24.8,20.9,30.18,SE,127,0.0,0.0,85,0.00,,FEW180,0.00,VWS V14.01,2013-04-01 13:54:00,
2013-04-01 07:59:00,24.8,20.9,30.18,SE,127,0.0,0.0,85,0.00,,FEW180,0.00,VWS V14.01,2013-04-01 13:59:00,
2013-04-01 08:04:00,24.8,20.9,30.18,SE,127,0.0,0.0,85,0.00,,FEW180,0.00,VWS V14.01,2013-04-01 14:04:00,
2013-04-01 08:09:00,25.0,21.1,30.18,SE,127,0.0,0.0,85,0.00,,FEW240,0.00,VWS V14.01,2013-04-01 14:09:00,
2013-04-01 08:14:00,25.0,21.4,30.18,SE,127,0.0,0.0,86,0.00,,FEW240,0.00,VWS V14.01,2013-04-01 14:14:00,
2013-04-01 08:19:00,25.1,21.5,30.20,SE,127,0.0,0.0,86,0.00,,FEW240,0.00,VWS V14.01,2013-04-01 14:19:00,
2013-04-01 08:24:00,25.3,22.0,30.20,SE,127,0.0,0.0,87,0.00,,FEW240,0.00,VWS V14.01,2013-04-01 14:24:00,
2013-04-01 08:29:00,25.4,22.1,30.20,SE,127,0.0,0.0,87,0.00,,FEW240,0.00,VWS V14.01,2013-04-01 14:29:00,
2013-04-01 08:34:00,25.8,22.5,30.19,SE,127,0.0,0.0,87,0.00,,FEW240,0.00,VWS V14.01,2013-04-01 14:34:00,
2013-04-01 08:39:00,26.1,22.5,30.19,SE,127,0.0,0.0,86,0.00,,FEW240,0.00,VWS V14.01,2013-04-01 14:39:00,
2013-04-01 08:44:00,26.4,22.5,30.19,SE,127,0.0,0.0,85,0.00,,FEW240,0.00,VWS V14.01,2013-04-01 14:44:00,
2013-04-01 08:49:00,26.6,22.7,30.19,SE,127,0.0,0.0,85,0.00,,FEW240,0.00,VWS V14.01,2013-04-01 14:49:00,
2013-04-01 08:54:00,26.9,23.0,30.19,SE,127,0.0,0.0,85,0.00,,FEW240,0.00,VWS V14.01,2013-04-01 14:54:00,
2013-04-01 08:59:00,27.0,23.1,30.19,SE,127,0.0,0.0,85,0.00,,FEW240,0.00,VWS V14.01,2013-04-01 14:59:00,
2013-04-01 09:04:00,27.3,23.1,30.19,SE,127,0.0,0.0,84,0.00,,FEW240,0.00,VWS V14.01,2013-04-01 15:04:00,
2013-04-01 09:09:00,27.6,23.1,30.19,SE,127,0.0,0.0,83,0.00,,SKC,0.00,VWS V14.01,2013-04-01 15:09:00,
2013-04-01 09:14:00,27.8,23.3,30.19,SE,127,0.0,0.0,83,0.00,,SKC,0.00,VWS V14.01,2013-04-01 15:14:00,
2013-04-01 09:19:00,28.1,23.3,30.19,SE,127,0.0,0.0,82,0.00,,SKC,0.00,VWS V14.01,2013-04-01 15:19:00,
2013-04-01 09:24:00,28.2,23.1,30.19,SE,127,0.0,0.0,81,0.00,,SKC,0.00,VWS V14.01,2013-04-01 15:24:00,
2013-04-01 09:29:00,28.4,23.0,30.19,SE,127,0.0,0.0,80,0.00,,SKC,0.00,VWS V14.01,2013-04-01 15:29:00,
2013-04-01 09:34:00,28.7,22.7,30.18,NNW,329,0.0,0.0,78,0.00,,SKC,0.00,VWS V14.01,2013-04-01 15:34:00,
2013-04-01 09:39:00,29.0,23.0,30.18,NNW,329,0.0,0.0,78,0.00,,SKC,0.00,VWS V14.01,2013-04-01 15:39:00,
2013-04-01 09:44:00,29.3,23.3,30.18,NNW,329,0.0,0.0,78,0.00,,SKC,0.00,VWS V14.01,2013-04-01 15:44:00,
2013-04-01 09:49:00,29.5,23.2,30.17,NNW,329,0.0,0.0,77,0.00,,SKC,0.00,VWS V14.01,2013-04-01 15:49:00,
2013-04-01 09:54:00,29.8,23.5,30.17,NNW,328,0.0,0.0,77,0.00,,SKC,0.00,VWS V14.01,2013-04-01 15:54:00,
2013-04-01 09:59:00,30.1,23.5,30.17,NNW,328,0.0,0.0,76,0.00,,SKC,0.00,VWS V14.01,2013-04-01 15:59:00,
2013-04-01 10:04:00,30.4,23.4,30.17,NNW,328,0.0,0.0,75,0.00,,SKC,0.00,VWS V14.01,2013-04-01 16:04:00,
2013-04-01 10:09:00,30.7,23.7,30.17,NNW,328,0.0,0.0,75,0.00,,SKC,0.00,VWS V14.01,2013-04-01 16:09:00,
2013-04-01 10:14:00,31.2,23.6,30.17,NNW,328,0.0,0.0,73,0.00,,SKC,0.00,VWS V14.01,2013-04-01 16:14:00,
2013-04-01 10:19:00,31.5,23.5,30.18,North,350,0.0,0.0,72,0.00,,SKC,0.00,VWS V14.01,2013-04-01 16:19:00,
2013-04-01 10:24:00,31.8,23.8,30.18,North,350,0.0,0.0,72,0.00,,SKC,0.00,VWS V14.01,2013-04-01 16:24:00,
2013-04-01 10:29:00,32.1,24.1,30.18,North,350,0.0,0.0,72,0.00,,SKC,0.00,VWS V14.01,2013-04-01 16:29:00,
2013-04-01 10:34:00,32.7,24.4,30.16,North,350,0.0,0.0,71,0.00,,SKC,0.00,VWS V14.01,2013-04-01 16:34:00,
2013-04-01 10:39:00,33.1,24.4,30.16,North,350,0.0,0.0,70,0.00,,SKC,0.00,VWS V14.01,2013-04-01 16:39:00,
2013-04-01 10:44:00,33.5,24.4,30.16,NNW,331,0.0,0.0,69,0.00,,SKC,0.00,VWS V14.01,2013-04-01 16:44:00,
2013-04-01 10:49:00,34.0,24.9,30.14,NNW,331,0.0,0.0,69,0.00,,SKC,0.00,VWS V14.01,2013-04-01 16:49:00,
2013-04-01 10:54:00,34.3,25.2,30.14,NNW,329,0.0,0.0,69,0.00,,SKC,0.00,VWS V14.01,2013-04-01 16:54:00,
2013-04-01 10:59:00,34.7,25.2,30.14,NNW,329,0.0,0.0,68,0.00,,SKC,0.00,VWS V14.01,2013-04-01 16:59:00,
2013-04-01 11:04:00,35.2,25.4,30.13,NNW,329,0.0,0.0,67,0.00,,SKC,0.00,VWS V14.01,2013-04-01 17:04:00,
2013-04-01 11:09:00,35.6,25.0,30.13,NNW,329,0.0,0.0,65,0.00,,SKC,0.00,VWS V14.01,2013-04-01 17:09:00,
2013-04-01 11:14:00,36.0,25.4,30.13,NNW,329,0.0,0.0,65,0.00,,SKC,0.00,VWS V14.01,2013-04-01 17:14:00,
2013-04-01 11:19:00,36.6,25.2,30.13,NNW,329,0.0,0.0,63,0.00,,SKC,0.00,VWS V14.01,2013-04-01 17:19:00,
2013-04-01 11:24:00,37.0,25.6,30.13,NNW,329,0.0,0.0,63,0.00,,SKC,0.00,VWS V14.01,2013-04-01 17:24:00,
2013-04-01 11:29:00,37.6,25.8,30.13,NNW,329,0.0,0.0,62,0.00,,SKC,0.00,VWS V14.01,2013-04-01 17:29:00,
2013-04-01 11:34:00,38.2,26.0,30.11,NNW,329,0.0,0.0,61,0.00,,SKC,0.00,VWS V14.01,2013-04-01 17:34:00,
2013-04-01 11:39:00,38.6,25.9,30.11,NNW,329,0.0,0.0,60,0.00,,SKC,0.00,VWS V14.01,2013-04-01 17:39:00,
2013-04-01 11:44:00,39.1,26.4,30.11,NNW,329,0.0,0.0,60,0.00,,SKC,0.00,VWS V14.01,2013-04-01 17:44:00,
2013-04-01 11:49:00,39.6,26.1,30.10,NNW,329,0.0,0.0,58,0.00,,SKC,0.00,VWS V14.01,2013-04-01 17:49:00,
2013-04-01 11:54:00,40.2,25.8,30.10,NNW,328,0.0,0.0,56,0.00,,SKC,0.00,VWS V14.01,2013-04-01 17:54:00,
2013-04-01 11:59:00,40.8,25.9,30.10,NNW,328,0.0,0.0,55,0.00,,SKC,0.00,VWS V14.01,2013-04-01 17:59:00,
2013-04-01 12:04:00,41.3,26.8,30.09,NW,311,0.0,0.0,56,0.00,,SKC,0.00,VWS V14.01,2013-04-01 18:04:00,
2013-04-01 12:09:00,42.1,26.7,30.09,NW,321,0.0,0.0,54,0.00,,SKC,0.00,VWS V14.01,2013-04-01 18:09:00,
2013-04-01 12:14:00,42.9,27.0,30.09,NW,321,0.0,0.0,53,0.00,,SKC,0.00,VWS V14.01,2013-04-01 18:14:00,
2013-04-01 12:19:00,43.6,27.1,30.08,NW,321,0.0,0.0,52,0.00,,SKC,0.00,VWS V14.01,2013-04-01 18:19:00,
2013-04-01 12:24:00,44.3,25.9,30.08,NW,311,0.0,0.0,48,0.00,,SKC,0.00,VWS V14.01,2013-04-01 18:24:00,
2013-04-01 12:29:00,45.1,27.1,30.08,NW,311,0.0,0.0,49,0.00,,SKC,0.00,VWS V14.01,2013-04-01 18:29:00,
2013-04-01 12:34:00,46.0,26.9,30.07,NW,311,0.0,0.0,47,0.00,,SKC,0.00,VWS V14.01,2013-04-01 18:34:00,
2013-04-01 12:39:00,46.5,25.8,30.07,NW,311,0.0,0.0,44,0.00,,SKC,0.00,VWS V14.01,2013-04-01 18:39:00,
2013-04-01 12:44:00,46.7,26.5,30.07,NW,311,0.0,0.0,45,0.00,,SKC,0.00,VWS V14.01,2013-04-01 18:44:00,
2013-04-01 12:49:00,47.6,26.8,30.05,NW,311,0.0,0.0,44,0.00,,SKC,0.00,VWS V14.01,2013-04-01 18:49:00,
2013-04-01 12:54:00,48.8,26.2,30.05,NW,311,0.0,0.0,41,0.00,,SKC,0.00,VWS V14.01,2013-04-01 18:54:00,
2013-04-01 12:59:00,49.6,23.8,30.05,NW,311,0.0,0.0,36,0.00,,SKC,0.00,VWS V14.01,2013-04-01 18:59:00,
2013-04-01 13:04:00,50.8,26.1,30.03,NW,311,0.0,0.0,38,0.00,,SKC,0.00,VWS V14.01,2013-04-01 19:04:00,
2013-04-01 13:09:00,51.4,26.0,30.03,NW,311,0.0,0.0,37,0.00,,SKC,0.00,VWS V14.01,2013-04-01 19:09:00,
2013-04-01 13:14:00,51.6,24.9,30.03,NW,311,0.0,0.0,35,0.00,,SKC,0.00,VWS V14.01,2013-04-01 19:14:00,
2013-04-01 13:19:00,52.5,24.2,30.02,NW,310,0.0,0.0,33,0.00,,SKC,0.00,VWS V14.01,2013-04-01 19:19:00,
2013-04-01 13:24:00,52.8,23.8,30.02,NW,310,0.0,0.0,32,0.00,,SKC,0.00,VWS V14.01,2013-04-01 19:24:00,
2013-04-01 13:29:00,53.5,23.6,30.02,NW,310,0.0,0.0,31,0.00,,SKC,0.00,VWS V14.01,2013-04-01 19:29:00,
2013-04-01 13:34:00,54.2,24.2,30.00,NW,310,0.0,0.0,31,0.00,,SKC,0.00,VWS V14.01,2013-04-01 19:34:00,
2013-04-01 13:39:00,55.3,26.0,30.00,NW,309,0.0,0.0,32,0.00,,SKC,0.00,VWS V14.01,2013-04-01 19:39:00,
2013-04-01 13:44:00,55.6,23.0,30.00,NW,314,0.0,0.0,28,0.00,,SKC,0.00,VWS V14.01,2013-04-01 19:44:00,
2013-04-01 13:49:00,55.1,23.4,30.00,NW,314,0.0,0.0,29,0.00,,SKC,0.00,VWS V14.01,2013-04-01 19:49:00,
2013-04-01 13:54:00,54.8,23.2,30.00,NW,314,0.0,0.0,29,0.00,,SKC,0.00,VWS V14.01,2013-04-01 19:54:00,
2013-04-01 13:59:00,54.7,23.1,30.00,NW,314,0.0,0.0,29,0.00,,SKC,0.00,VWS V14.01,2013-04-01 19:59:00,
2013-04-01 14:04:00,55.1,22.6,29.98,NW,314,0.0,0.0,28,0.00,,SKC,0.00,VWS V14.01,2013-04-01 20:04:00,
2013-04-01 14:09:00,55.9,24.1,29.98,NW,314,0.0,0.0,29,0.00,,FEW150,0.00,VWS V14.01,2013-04-01 20:09:00,
2013-04-01 14:14:00,55.7,22.3,29.98,NW,319,0.0,0.0,27,0.00,,FEW150,0.00,VWS V14.01,2013-04-01 20:14:00,
2013-04-01 14:19:00,55.6,22.2,29.98,NW,319,0.0,0.0,27,0.00,,FEW150,0.00,VWS V14.01,2013-04-01 20:19:00,
2013-04-01 14:24:00,55.7,19.5,29.98,NW,319,0.0,0.0,24,0.00,,FEW150,0.00,VWS V14.01,2013-04-01 20:24:00,
2013-04-01 14:29:00,56.3,21.9,29.98,NW,321,0.0,0.0,26,0.00,,FEW150,0.00,VWS V14.01,2013-04-01 20:29:00,
2013-04-01 14:34:00,56.9,22.4,29.97,NW,321,0.0,0.0,26,0.00,,FEW150,0.00,VWS V14.01,2013-04-01 20:34:00,
2013-04-01 14:39:00,56.6,21.2,29.97,NW,321,0.0,0.0,25,0.00,,FEW150,0.00,VWS V14.01,2013-04-01 20:39:00,
2013-04-01 14:44:00,57.0,21.5,29.97,NW,321,0.0,0.0,25,0.00,,FEW150,0.00,VWS V14.01,2013-04-01 20:44:00,
2013-04-01 14:49:00,57.8,20.3,29.96,NW,324,0.0,0.0,23,0.00,,FEW150,0.00,VWS V14.01,2013-04-01 20:49:00,
2013-04-01 14:54:00,58.3,23.6,29.96,NW,324,0.0,0.0,26,0.00,,FEW150,0.00,VWS V14.01,2013-04-01 20:54:00,
2013-04-01 14:59:00,58.9,22.2,29.96,NW,324,0.0,0.0,24,0.00,,FEW150,0.00,VWS V14.01,2013-04-01 20:59:00,
2013-04-01 15:04:00,59.8,22.0,29.95,NW,324,0.0,0.0,23,0.00,,FEW150,0.00,VWS V14.01,2013-04-01 21:04:00,
2013-04-01 15:09:00,60.1,22.2,29.95,NW,324,0.0,0.0,23,0.00,,SKC,0.00,VWS V14.01,2013-04-01 21:09:00,
2013-04-01 15:14:00,59.9,22.0,29.95,NW,324,0.0,0.0,23,0.00,,SKC,0.00,VWS V14.01,2013-04-01 21:14:00,
2013-04-01 15:19:00,60.1,22.2,29.94,NW,324,0.0,0.0,23,0.00,,SKC,0.00,VWS V14.01,2013-04-01 21:19:00,
2013-04-01 15:24:00,60.2,22.3,29.94,NW,324,0.0,0.0,23,0.00,,SKC,0.00,VWS V14.01,2013-04-01 21:24:00,
2013-04-01 15:29:00,60.4,23.5,29.94,NW,324,0.0,0.0,24,0.00,,SKC,0.00,VWS V14.01,2013-04-01 21:29:00,
2013-04-01 15:34:00,61.0,23.0,29.94,NW,324,0.0,0.0,23,0.00,,SKC,0.00,VWS V14.01,2013-04-01 21:34:00,
2013-04-01 15:39:00,61.6,22.4,29.94,NW,324,0.0,0.0,22,0.00,,SKC,0.00,VWS V14.01,2013-04-01 21:39:00,
2013-04-01 15:44:00,62.0,22.8,29.94,NW,324,0.0,0.0,22,0.00,,SKC,0.00,VWS V14.01,2013-04-01 21:44:00,
2013-04-01 15:49:00,62.3,21.9,29.92,NW,324,0.0,0.0,21,0.00,,SKC,0.00,VWS V14.01,2013-04-01 21:49:00,
2013-04-01 15:54:00,61.6,21.3,29.92,NW,324,0.0,0.0,21,0.00,,SKC,0.00,VWS V14.01,2013-04-01 21:54:00,
2013-04-01 15:59:00,61.6,20.2,29.92,NW,324,0.0,0.0,20,0.00,,SKC,0.00,VWS V14.01,2013-04-01 21:59:00,
2013-04-01 16:04:00,61.5,22.3,29.92,NW,324,0.0,0.0,22,0.00,,SKC,0.00,VWS V14.01,2013-04-01 22:04:00,
2013-04-01 16:09:00,61.5,21.2,29.92,NW,324,0.0,0.0,21,0.00,,SKC,0.00,VWS V14.01,2013-04-01 22:09:00,
2013-04-01 16:14:00,62.1,25.9,29.92,NW,324,0.0,0.0,25,0.00,,SKC,0.00,VWS V14.01,2013-04-01 22:14:00,
2013-04-01 16:19:00,62.4,24.1,29.92,NW,324,0.0,0.0,23,0.00,,SKC,0.00,VWS V14.01,2013-04-01 22:19:00,
2013-04-01 16:24:00,62.4,22.0,29.92,NW,324,0.0,0.0,21,0.00,,SKC,0.00,VWS V14.01,2013-04-01 22:24:00,
2013-04-01 16:29:00,62.6,22.1,29.92,NW,324,0.0,0.0,21,0.00,,SKC,0.00,VWS V14.01,2013-04-01 22:29:00,
2013-04-01 16:34:00,62.4,26.1,29.92,NW,324,0.0,0.0,25,0.00,,SKC,0.00,VWS V14.01,2013-04-01 22:34:00,
2013-04-01 16:39:00,61.8,26.6,29.92,NW,324,0.0,0.0,26,0.00,,SKC,0.00,VWS V14.01,2013-04-01 22:39:00,
2013-04-01 16:44:00,61.0,25.9,29.92,NW,324,0.0,0.0,26,0.00,,SKC,0.00,VWS V14.01,2013-04-01 22:44:00,
2013-04-01 16:49:00,60.7,25.6,29.93,NW,326,0.0,0.0,26,0.00,,SKC,0.00,VWS V14.01,2013-04-01 22:49:00,
2013-04-01 16:54:00,60.7,26.5,29.93,NW,326,0.0,0.0,27,0.00,,SKC,0.00,VWS V14.01,2013-04-01 22:54:00,
2013-04-01 16:59:00,60.9,26.7,29.93,SSE,163,0.0,0.0,27,0.00,,SKC,0.00,VWS V14.01,2013-04-01 22:59:00,
2013-04-01 17:04:00,60.9,27.6,29.93,SSE,155,0.0,0.0,28,0.00,,SKC,0.00,VWS V14.01,2013-04-01 23:04:00,
2013-04-01 17:09:00,60.5,25.5,29.93,SE,143,0.0,0.0,26,0.00,,SKC,0.00,VWS V14.01,2013-04-01 23:09:00,
2013-04-01 17:14:00,60.2,26.1,29.93,SE,144,0.0,0.0,27,0.00,,SKC,0.00,VWS V14.01,2013-04-01 23:14:00,
2013-04-01 17:19:00,60.2,27.0,29.93,SE,143,0.0,0.0,28,0.00,,SKC,0.00,VWS V14.01,2013-04-01 23:19:00,
2013-04-01 17:24:00,59.9,26.7,29.93,SE,146,0.0,0.0,28,0.00,,SKC,0.00,VWS V14.01,2013-04-01 23:24:00,
2013-04-01 17:29:00,59.6,26.5,29.93,SE,135,0.0,0.0,28,0.00,,SKC,0.00,VWS V14.01,2013-04-01 23:29:00,
2013-04-01 17:34:00,59.3,25.4,29.94,SE,131,0.0,0.0,27,0.00,,SKC,0.00,VWS V14.01,2013-04-01 23:34:00,
2013-04-01 17:39:00,59.2,27.0,29.94,SE,134,0.0,3.0,29,0.00,,SKC,0.00,VWS V14.01,2013-04-01 23:39:00,
2013-04-01 17:44:00,59.0,26.8,29.94,SE,130,0.0,3.0,29,0.00,,SKC,0.00,VWS V14.01,2013-04-01 23:44:00,
2013-04-01 17:49:00,58.6,27.3,29.95,SE,138,0.0,3.0,30,0.00,,SKC,0.00,VWS V14.01,2013-04-01 23:49:00,
2013-04-01 17:54:00,58.1,27.6,29.95,SE,134,0.0,3.0,31,0.00,,SKC,0.00,VWS V14.01,2013-04-01 23:54:00,
2013-04-01 17:59:00,57.5,27.1,29.95,SE,134,0.0,3.0,31,0.00,,SKC,0.00,VWS V14.01,2013-04-01 23:59:00,
2013-04-01 18:04:00,57.3,27.0,29.96,SE,134,0.0,0.0,31,0.00,,SKC,0.00,VWS V14.01,2013-04-02 00:04:00,
2013-04-01 18:09:00,57.2,26.9,29.96,SE,127,0.0,0.0,31,0.00,,SKC,0.00,VWS V14.01,2013-04-02 00:09:00,
2013-04-01 18:14:00,57.0,26.7,29.96,SE,127,0.0,0.0,31,0.00,,SKC,0.00,VWS V14.01,2013-04-02 00:14:00,
2013-04-01 18:19:00,56.3,26.8,29.96,SE,127,0.0,0.0,32,0.00,,SKC,0.00,VWS V14.01,2013-04-02 00:19:00,
2013-04-01 18:24:00,55.4,26.8,29.96,ENE,74,0.0,0.0,33,0.00,,SKC,0.00,VWS V14.01,2013-04-02 00:24:00,
2013-04-01 18:29:00,54.7,26.2,29.96,SE,127,0.0,0.0,33,0.00,,SKC,0.00,VWS V14.01,2013-04-02 00:29:00,
2013-04-01 18:34:00,54.1,28.4,29.97,SE,127,0.0,0.0,37,0.00,,SKC,0.00,VWS V14.01,2013-04-02 00:34:00,
2013-04-01 18:39:00,53.5,27.2,29.97,SE,127,0.0,0.0,36,0.00,,SKC,0.00,VWS V14.01,2013-04-02 00:39:00,
2013-04-01 18:44:00,53.1,27.5,29.97,ESE,118,0.0,1.0,37,0.00,,SKC,0.00,VWS V14.01,2013-04-02 00:44:00,
2013-04-01 18:49:00,52.6,27.1,29.98,ESE,120,0.0,1.0,37,0.00,,SKC,0.00,VWS V14.01,2013-04-02 00:49:00,
2013-04-01 18:54:00,52.3,27.5,29.98,ESE,120,0.0,1.0,38,0.00,,SKC,0.00,VWS V14.01,2013-04-02 00:54:00,
2013-04-01 18:59:00,51.9,27.1,29.98,ESE,112,0.0,1.0,38,0.00,,SKC,0.00,VWS V14.01,2013-04-02 00:59:00,
2013-04-01 19:04:00,51.4,27.9,29.99,ESE,113,0.0,0.0,40,0.00,,SKC,0.00,VWS V14.01,2013-04-02 01:04:00,
2013-04-01 19:09:00,51.0,27.5,29.99,SSE,153,0.0,0.0,40,0.00,,SKC,0.00,VWS V14.01,2013-04-02 01:09:00,
2013-04-01 19:14:00,50.7,27.3,29.99,SE,126,0.0,0.0,40,0.00,,SKC,0.00,VWS V14.01,2013-04-02 01:14:00,
2013-04-01 19:19:00,50.4,27.6,29.99,SE,126,0.0,0.0,41,0.00,,SKC,0.00,VWS V14.01,2013-04-02 01:19:00,
2013-04-01 19:24:00,50.1,27.3,29.99,SE,126,0.0,0.0,41,0.00,,SKC,0.00,VWS V14.01,2013-04-02 01:24:00,
2013-04-01 19:29:00,49.9,27.7,29.99,SE,126,0.0,0.0,42,0.00,,SKC,0.00,VWS V14.01,2013-04-02 01:29:00,
2013-04-01 19:34:00,49.8,27.6,30.00,SE,126,0.0,0.0,42,0.00,,SKC,0.00,VWS V14.01,2013-04-02 01:34:00,
2013-04-01 19:39:00,49.4,27.9,30.00,SE,126,0.0,0.0,43,0.00,,SKC,0.00,VWS V14.01,2013-04-02 01:39:00,
2013-04-01 19:44:00,49.1,28.1,30.00,ESE,120,0.0,0.0,44,0.00,,SKC,0.00,VWS V14.01,2013-04-02 01:44:00,
2013-04-01 19:49:00,48.8,27.9,30.00,ESE,120,0.0,0.0,44,0.00,,SKC,0.00,VWS V14.01,2013-04-02 01:49:00,
2013-04-01 19:54:00,48.6,27.7,30.00,ESE,120,0.0,0.0,44,0.00,,SKC,0.00,VWS V14.01,2013-04-02 01:54:00,
2013-04-01 19:59:00,48.2,27.9,30.00,ESE,120,0.0,0.0,45,0.00,,SKC,0.00,VWS V14.01,2013-04-02 01:59:00,
2013-04-01 20:04:00,47.9,28.1,30.01,ESE,120,0.0,0.0,46,0.00,,SKC,0.00,VWS V14.01,2013-04-02 02:04:00,
2013-04-01 20:09:00,47.6,27.9,30.01,ESE,120,0.0,0.0,46,0.00,,SKC,0.00,VWS V14.01,2013-04-02 02:09:00,
2013-04-01 20:14:00,47.6,27.9,30.01,ESE,120,0.0,0.0,46,0.00,,SKC,0.00,VWS V14.01,2013-04-02 02:14:00,
2013-04-01 20:19:00,47.4,27.7,30.00,SE,129,0.0,0.0,46,0.00,,SKC,0.00,VWS V14.01,2013-04-02 02:19:00,
2013-04-01 20:24:00,47.1,27.9,30.00,SE,129,0.0,0.0,47,0.00,,SKC,0.00,VWS V14.01,2013-04-02 02:24:00,
2013-04-01 20:29:00,46.8,28.2,30.00,SE,129,0.0,0.0,48,0.00,,SKC,0.00,VWS V14.01,2013-04-02 02:29:00,
2013-04-01 20:34:00,46.4,28.3,30.00,SE,129,0.0,0.0,49,0.00,,SKC,0.00,VWS V14.01,2013-04-02 02:34:00,
2013-04-01 20:39:00,46.2,27.6,30.00,SE,131,0.0,0.0,48,0.00,,SKC,0.00,VWS V14.01,2013-04-02 02:39:00,
2013-04-01 20:44:00,46.1,28.0,30.00,SE,131,0.0,0.0,49,0.00,,SKC,0.00,VWS V14.01,2013-04-02 02:44:00,
2013-04-01 20:49:00,46.0,27.9,30.01,SE,131,0.0,0.0,49,0.00,,SKC,0.00,VWS V14.01,2013-04-02 02:49:00,
2013-04-01 20:54:00,46.0,27.9,30.01,SE,131,0.0,0.0,49,0.00,,SKC,0.00,VWS V14.01,2013-04-02 02:54:00,
2013-04-01 20:59:00,45.7,28.1,30.01,SE,131,0.0,0.0,50,0.00,,SKC,0.00,VWS V14.01,2013-04-02 02:59:00,
2013-04-01 21:04:00,45.2,28.2,30.02,SE,131,0.0,0.0,51,0.00,,SKC,0.00,VWS V14.01,2013-04-02 03:04:00,
2013-04-01 21:09:00,44.6,28.1,30.02,SE,131,0.0,0.0,52,0.00,,FEW240,0.00,VWS V14.01,2013-04-02 03:09:00,
2013-04-01 21:14:00,44.1,28.5,30.02,SE,131,0.0,0.0,54,0.00,,FEW240,0.00,VWS V14.01,2013-04-02 03:14:00,
2013-04-01 21:19:00,43.3,28.7,30.02,SE,131,0.0,0.0,56,0.00,,FEW240,0.00,VWS V14.01,2013-04-02 03:19:00,
2013-04-01 21:24:00,42.6,28.5,30.02,SE,131,0.0,0.0,57,0.00,,FEW240,0.00,VWS V14.01,2013-04-02 03:24:00,
2013-04-01 21:29:00,42.1,28.4,30.02,SE,131,0.0,0.0,58,0.00,,FEW240,0.00,VWS V14.01,2013-04-02 03:29:00,
2013-04-01 21:34:00,41.6,28.8,30.03,SE,131,0.0,0.0,60,0.00,,FEW240,0.00,VWS V14.01,2013-04-02 03:34:00,
2013-04-01 21:39:00,41.1,28.7,30.03,SE,131,0.0,0.0,61,0.00,,FEW120,0.00,VWS V14.01,2013-04-02 03:39:00,
2013-04-01 21:44:00,40.6,28.2,30.03,SE,131,0.0,0.0,61,0.00,,FEW120,0.00,VWS V14.01,2013-04-02 03:44:00,
2013-04-01 21:49:00,40.2,28.2,30.04,SE,131,0.0,0.0,62,0.00,,FEW120,0.00,VWS V14.01,2013-04-02 03:49:00,
2013-04-01 21:54:00,40.1,27.8,30.04,SE,131,0.0,0.0,61,0.00,,FEW120,0.00,VWS V14.01,2013-04-02 03:54:00,
2013-04-01 21:59:00,39.8,27.1,30.04,SE,131,0.0,0.0,60,0.00,,FEW120,0.00,VWS V14.01,2013-04-02 03:59:00,
2013-04-01 22:00:00,39.8,26.7,30.05,SE,131,0.0,0.0,59,0.00,,FEW120,0.00,VWS V14.01,2013-04-02 04:00:00,
2013-04-01 22:05:00,39.8,27.9,30.05,SE,131,0.0,0.0,62,0.00,,FEW120,0.00,VWS V14.01,2013-04-02 04:05:00,
2013-04-01 22:10:00,39.5,28.4,30.05,SE,131,0.0,0.0,64,0.00,,FEW120,0.00,VWS V14.01,2013-04-02 04:10:00,
2013-04-01 22:15:00,39.3,27.8,30.03,SE,131,0.0,0.0,63,0.00,,FEW120,0.00,VWS V14.01,2013-04-02 04:15:00,
2013-04-01 22:20:00,39.3,28.2,30.03,SE,131,0.0,0.0,64,0.00,,FEW120,0.00,VWS V14.01,2013-04-02 04:20:00,
2013-04-01 22:25:00,39.3,28.2,30.03,SE,131,0.0,0.0,64,0.00,,FEW120,0.00,VWS V14.01,2013-04-02 04:25:00,
2013-04-01 22:30:00,39.3,28.5,30.03,SE,131,0.0,0.0,65,0.00,,FEW120,0.00,VWS V14.01,2013-04-02 04:30:00,
2013-04-01 22:35:00,39.3,28.2,30.03,SE,131,0.0,0.0,64,0.00,,SKC,0.00,VWS V14.01,2013-04-02 04:35:00,
2013-04-01 22:40:00,39.3,28.2,30.03,SE,131,0.0,0.0,64,0.00,,SKC,0.00,VWS V14.01,2013-04-02 04:40:00,
2013-04-01 22:45:00,39.2,28.1,30.03,SE,131,0.0,0.0,64,0.00,,SKC,0.00,VWS V14.01,2013-04-02 04:45:00,
2013-04-01 22:50:00,39.1,28.0,30.03,SE,131,0.0,0.0,64,0.00,,SKC,0.00,VWS V14.01,2013-04-02 04:50:00,
2013-04-01 22:55:00,38.5,27.8,30.03,SE,131,0.0,0.0,65,0.00,,SKC,0.00,VWS V14.01,2013-04-02 04:55:00,
2013-04-01 23:00:00,38.0,27.7,30.03,SE,131,0.0,0.0,66,0.00,,SKC,0.00,VWS V14.01,2013-04-02 05:00:00,
2013-04-01 23:05:00,38.0,27.3,30.03,SE,131,0.0,0.0,65,0.00,,SKC,0.00,VWS V14.01,2013-04-02 05:05:00,
2013-04-01 23:10:00,37.8,27.8,30.03,SE,131,0.0,0.0,67,0.00,,SKC,0.00,VWS V14.01,2013-04-02 05:10:00,
2013-04-01 23:15:00,37.6,27.3,30.00,SE,131,0.0,0.0,66,0.00,,SKC,0.00,VWS V14.01,2013-04-02 05:15:00,
2013-04-01 23:20:00,37.5,27.2,30.00,SE,131,0.0,0.0,66,0.00,,SKC,0.00,VWS V14.01,2013-04-02 05:20:00,
2013-04-01 23:25:00,37.3,27.4,30.00,SE,131,0.0,0.0,67,0.00,,SKC,0.00,VWS V14.01,2013-04-02 05:25:00,
2013-04-01 23:30:00,36.9,27.0,30.00,SE,131,0.0,0.0,67,0.00,,SKC,0.00,VWS V14.01,2013-04-02 05:30:00,
2013-04-01 23:35:00,36.5,26.6,30.00,SE,131,0.0,0.0,67,0.00,,SKC,0.00,VWS V14.01,2013-04-02 05:35:00,
2013-04-01 23:40:00,36.2,26.7,30.00,SE,131,0.0,0.0,68,0.00,,SKC,0.00,VWS V14.01,2013-04-02 05:40:00,
2013-04-01 23:45:00,36.2,26.7,30.01,SE,131,0.0,0.0,68,0.00,,SKC,0.00,VWS V14.01,2013-04-02 05:45:00,
2013-04-01 23:50:00,36.0,26.8,30.01,SE,131,0.0,0.0,69,0.00,,SKC,0.00,VWS V14.01,2013-04-02 05:50:00,
2013-04-01 23:55:00,35.9,27.4,30.01,SE,131,0.0,0.0,71,0.00,,SKC,0.00,VWS V14.01,2013-04-02 05:55:00,